Regional Weather Roundup
Issued by NWS

Home | Current Version | Previous Version | Graphics & Text | Print | Product List | Glossary On
Versions: 1 2 3 4 5 6 7 8 9 10 11 12 13 14 15 16 17 18 19 20 21 22 23 24 25 26 27 28 29 30 31 32 33 34 35 36 37 38 39 40 41 42 43 44 45 46 47 48 49 50
000
ASUS45 KBOU 260510
RWRCO

WEATHER ROUNDUP FOR COLORADO
NATIONAL WEATHER SERVICE DENVER/BOULDER CO
1100 PM MDT SUN SEP 25 2016

NOTE: "FAIR" INDICATES FEW OR NO CLOUDS BELOW 12000 FEET WITH NO
SIGNIFICANT WEATHER AND/OR OBSTRUCTIONS TO VISIBILITY.

COZ001>005-013-030-031-260600-
...NORTHWEST COLORADO...

CITY           SKY/WX    TMP DP  RH WIND       PRES   REMARKS
CRAIG          FAIR      40  34  79 CALM      30.51S
HAYDEN         FAIR      45  30  57 E6        30.51F
MEEKER         FAIR      44  35  70 E5        30.51S
MOUNT WERNER   NOT AVBL
STEAMBOAT SPGS FAIR      42  34  73 CALM      30.53S
WALDEN           N/A     32  25  74 SE5       30.59S WCI  27
$$

COZ006>008-011-260600-
...WEST CENTRAL VALLEYS...

CITY           SKY/WX    TMP DP  RH WIND       PRES   REMARKS
GRAND JUNCTION FAIR      51  40  65 NE3       30.40R
MONTROSE       FAIR      48  36  63 SE9       30.46S
EAGLE          FAIR      46  30  53 CALM      30.53R
RIFLE          FAIR      49  41  74 E3        30.44S
DELTA          NOT AVBL
NUCLA          FAIR      50  32  50 SE8       30.47S
$$

COZ017>023-064>068-260600-
...SOUTHWEST COLORADO...

CITY           SKY/WX    TMP DP  RH WIND       PRES   REMARKS
DURANGO        FAIR      47  36  65 N6        30.41S
CORTEZ         FAIR      50  34  54 N5        30.40S
PAGOSA SPRINGS FAIR      45  33  61 NE5       30.48S
TELLURIDE      FAIR      42  37  82 SE5       30.59R
WOLF CREEK PAS FAIR      37  27  65 MISG      30.72S
$$

COZ009-010-012-014-032>034-037-058>063-260600-
...CENTRAL COLORADO...

CITY           SKY/WX    TMP DP  RH WIND       PRES   REMARKS
ASPEN          FAIR      40  31  70 SW10      30.53S
BUENA VISTA    FAIR      42  28  56 CALM      30.56R
COPPER MTN     FAIR      37  23  56 W7        30.72R
BERTHOUD PASS  FAIR      28  14  54 N12G17    30.72R WCI  18
COTTONWOOD PAS FAIR      45  28  53 CALM      30.63R
GUNNISON       FAIR      41  31  67 N5        30.52R
KREMMLING      FAIR      41  27  56 CALM      30.56S
LEADVILLE      FAIR      31  21  66 E6        30.61R WCI  25
MONARCH PASS   FAIR      32  27  80 NE6       30.81S WCI  26
SALIDA         FAIR      48  30  50 SW3       30.61S
SUNLIGHT       FAIR      36  34  93 N6        30.69S
WILKERSON PASS FAIR      36  27  69 MISG      30.71S
$$

COZ069>075-260600-
...SAN LUIS VALLEY/SANGRE DE CRISTO MOUNTAINS...

CITY           SKY/WX    TMP DP  RH WIND       PRES   REMARKS
ALAMOSA        FAIR      43  30  60 SE9       30.47R
LA VETA PASS   FAIR      36  28  75 MISG      30.63S
SAGUACHE       NOT AVBL
$$

COZ035-036-038>040-260600-
...NORTHERN COLORADO FRONT RANGE...

CITY           SKY/WX    TMP DP  RH WIND       PRES   REMARKS
DENVER INTL AP FAIR      46  27  47 S12       30.44S
DMNS CITY PARK NOT AVBL
AURORA         CLEAR     48  29  48 S5        30.46R
FRONT RANGE AP NOT AVBL
ERIE MUNI ARPT FAIR      46  33  60 CALM      30.44S
BOULDER MUN AP FAIR      54  32  43 SW5       30.44S
CENTENNIAL     FAIR      49  29  46 S7        30.46S
BROOMFIELD     NOT AVBL
FORT COLLINS   FAIR      54  34  47 SE10      30.46R
LONGMONT       FAIR      50  36  57 NE5       30.46R
$$

COZ041-046-047-076>085-087-088-260600-
...PIKES PEAK/PALMER DIVIDE AND SOUTHERN FOOTHILLS...

CITY           SKY/WX    TMP DP  RH WIND       PRES   REMARKS
COLO. SPRINGS  FAIR      52  29  41 E5        30.50R
A. F. ACADEMY  FAIR      40  29  65 N8        30.50R
SCHRIEVER AFB  NOT AVBL
ELLICOTT       NOT AVBL
FALCON         FAIR      46  28  49 CALM      30.52S
FORT CARSON    FAIR      53  30  40 SW6       30.47R
LIMON          FAIR      41  26  55 W5        30.47R
MONUMENT HILL  FAIR      39  28  65 S9        30.53S
TRINIDAD       FAIR      45  32  60 W7        30.48R
$$

COZ042>045-048>051-090-091-260600-
...NORTHEAST COLORADO...

CITY           SKY/WX    TMP DP  RH WIND       PRES   REMARKS
GREELEY ARPT   FAIR      48  36  61 CALM      30.45R
AKRON          FAIR      47  32  56 S5        30.43S
BURLINGTON     FAIR      45  37  73 W3        30.42R
WRAY           NOT AVBL
STERLING       FAIR      43  32  65 CALM      30.40F
HOLYOKE        FAIR      43  34  70 W6        30.40F
FORT MORGAN    FAIR      49  32  51 CALM      30.43F
$$

COZ086-089-092>099-260600-
...SOUTHEAST COLORADO...

CITY           SKY/WX    TMP DP  RH WIND       PRES   REMARKS
PUEBLO         FAIR      52  28  39 CALM      30.43R
LA JUNTA       FAIR      53  32  44 E6        30.42R
LAMAR          FAIR      44  30  57 SE8       30.40R
SPRINGFIELD    NOT AVBL
$$



USA.gov is the U.S. government's official web portal to all federal, state and local government web resources and services.